Dublin, Ireland

1:07 PM IST on September 22, 2017 (GMT +0100)
Dublin International

Weather History for EIDW - June, 2012

Change the Weather History Date:

Sunday, June 10, 2012

  Actual Average Record
Temperature  
Mean Temperature 52 °F -  
Max Temperature 62 °F 64 °F 71 °F (2006)
Min Temperature 42 °F 50 °F 36 °F (2015)
Degree Days  
Heating Degree Days 13    
Growing Degree Days 2 (Base 50)    
Moisture  
Dew Point 46 °F    
Average Humidity 77    
Maximum Humidity 100    
Minimum Humidity 42    
Precipitation  
Precipitation 0.00 in 0.07 in - ()
Sea Level Pressure  
Sea Level Pressure 29.77 in    
Wind  
Wind Speed 5 mph ()    
Max Wind Speed 12 mph    
Max Gust Speed -    
Visibility 6.2 miles    
Events      
Averages and records for this station are not official NWS values.
T = Trace of Precipitation, MM = Missing Value Source: Averaged Metar Reports

Daily Weather History Graph

Daily Weather History Graph

Search for Another Location

Airport or City:

Trip Planner

Search our weather history database for the weather conditions in past years. The results will help you decide how hot, cold, wet, or windy it might be!

Date:

Astronomy

Jun. 10, 2012 Rise Set
Actual Time 4:57 AM IST 9:52 PM IST
Civil Twilight 4:05 AM IST 10:44 PM IST
Nautical Twilight 2:35 AM IST 12:14 AM IST
Astronomical Twilight Sun does not set Sun does not set
Moon 12:51 AM IST (6/10) 12:22 PM IST (6/10)
Length of Visible Light 18h 39m
Length of Day
16h 55m
Waning Gibbous, 60% of the Moon is Illuminated
Jun 10
Waning Gibbous
Jun 11
Last Quarter
Jun 19
New
Jun 27
First Quarter
Jul 3
Full

Hourly Weather History & Observations

Time (IST) Temp. Windchill Dew Point Humidity Pressure Visibility Wind Dir Wind Speed Gust Speed Precip Events Conditions
12:00 AM 44.6 °F 43.1 °F 42.8 °F 93% 29.83 in 6.2 mi NW 3.5 mph - N/A   Mostly Cloudy
12:30 AM 44.6 °F 41.4 °F 42.8 °F 93% 29.83 in 6.2 mi NNW 5.8 mph - N/A   Scattered Clouds
1:00 AM 45 °F - 45 °F 98% 29.83 in 31 mi North 4.5 mph - -   Mostly Cloudy
1:00 AM 46.4 °F 45.2 °F 44.6 °F 93% 29.80 in 6.2 mi Variable 3.5 mph - N/A   Mostly Cloudy
1:30 AM 48.2 °F - 46.4 °F 93% 29.83 in 6.2 mi Variable 2.3 mph - N/A   Mostly Cloudy
2:00 AM 48.2 °F - 46.4 °F 93% 29.80 in 6.2 mi North 3.5 mph - N/A   Mostly Cloudy
2:30 AM 48.2 °F - 46.4 °F 93% 29.80 in 6.2 mi WSW 3.5 mph - N/A   Mostly Cloudy
3:00 AM 48.2 °F - 44.6 °F 87% 29.80 in 6.2 mi WNW 5.8 mph - N/A   Mostly Cloudy
3:30 AM 46.4 °F 44.3 °F 44.6 °F 93% 29.80 in 6.2 mi WNW 4.6 mph - N/A   Mostly Cloudy
4:00 AM 44.6 °F 42.2 °F 42.8 °F 93% 29.80 in 6.2 mi WNW 4.6 mph - N/A   Mostly Cloudy
4:30 AM 44.6 °F - 42.8 °F 93% 29.80 in 6.2 mi WNW 1.2 mph - N/A   Mostly Cloudy
5:00 AM 42.8 °F 41.1 °F 42.8 °F 100% 29.80 in 6.2 mi NW 3.5 mph - N/A   Mostly Cloudy
5:30 AM 42.8 °F - 41.0 °F 93% 29.80 in 6.2 mi Calm Calm - N/A   Mostly Cloudy
6:00 AM 42.8 °F - 41.0 °F 93% 29.80 in 6.2 mi Calm Calm - N/A   Mostly Cloudy
6:30 AM 44.6 °F - 42.8 °F 93% 29.80 in 6.2 mi North 1.2 mph - N/A   Mostly Cloudy
7:00 AM 46 °F - 44 °F 92% 29.81 in 44 mi North 4.5 mph - -   Mostly Cloudy
7:00 AM 46.4 °F 44.3 °F 44.6 °F 93% 29.80 in 6.2 mi North 4.6 mph - N/A   Mostly Cloudy
7:30 AM 48.2 °F - 44.6 °F 87% 29.80 in 6.2 mi NNE 4.6 mph - N/A   Mostly Cloudy
8:00 AM 50.0 °F - 44.6 °F 82% 29.80 in 6.2 mi North 4.6 mph - N/A   Mostly Cloudy
8:30 AM 51.8 °F - 46.4 °F 82% 29.80 in 6.2 mi North 3.5 mph - N/A   Mostly Cloudy
9:00 AM 53.6 °F - 50.0 °F 88% 29.80 in 6.2 mi NNE 4.6 mph - N/A   Mostly Cloudy
9:30 AM 55.4 °F - 48.2 °F 77% 29.80 in 6.2 mi NNE 5.8 mph - N/A   Mostly Cloudy
10:00 AM 55.4 °F - 50.0 °F 82% 29.77 in 6.2 mi NE 5.8 mph - N/A   Scattered Clouds
10:30 AM 57.2 °F - 50.0 °F 77% 29.77 in 6.2 mi ENE 4.6 mph - N/A   Scattered Clouds
11:00 AM 59.0 °F - 50.0 °F 72% 29.77 in 6.2 mi Variable 3.5 mph - N/A   Mostly Cloudy
11:30 AM 60.8 °F - 50.0 °F 68% 29.77 in 6.2 mi ENE 4.6 mph - N/A   Mostly Cloudy
12:00 PM 62.6 °F - 50.0 °F 63% 29.77 in 6.2 mi ENE 6.9 mph - N/A   Scattered Clouds
12:30 PM 59.0 °F - 50.0 °F 72% 29.77 in 6.2 mi ENE 8.1 mph - N/A   Mostly Cloudy
1:00 PM 58 °F - 50 °F 66% 29.78 in 44 mi ENE 6.7 mph - -   Mostly Cloudy
1:00 PM 59.0 °F - 50.0 °F 72% 29.77 in 6.2 mi ENE 6.9 mph - N/A   Mostly Cloudy
1:30 PM 59.0 °F - 50.0 °F 72% 29.77 in 6.2 mi East 8.1 mph - N/A   Mostly Cloudy
2:00 PM 57.2 °F - 48.2 °F 72% 29.77 in 6.2 mi ESE 6.9 mph - N/A   Mostly Cloudy
2:30 PM 59.0 °F - 50.0 °F 72% 29.74 in 6.2 mi ESE 8.1 mph - N/A   Mostly Cloudy
3:00 PM 60.8 °F - 50.0 °F 68% 29.74 in 6.2 mi SE 10.4 mph - N/A   Mostly Cloudy
3:30 PM 60.8 °F - 46.4 °F 59% 29.74 in 6.2 mi ESE 9.2 mph - N/A   Mostly Cloudy
4:00 PM 60.8 °F - 44.6 °F 55% 29.74 in 6.2 mi ESE 10.4 mph - N/A   Mostly Cloudy
4:30 PM 59.0 °F - 42.8 °F 55% 29.74 in 6.2 mi SE 11.5 mph - N/A   Mostly Cloudy
5:00 PM 60.8 °F - 42.8 °F 52% 29.74 in 6.2 mi SE 11.5 mph - N/A   Mostly Cloudy
5:30 PM 60.8 °F - 39.2 °F 45% 29.71 in 6.2 mi SE 10.4 mph - N/A   Mostly Cloudy
6:00 PM 60.8 °F - 42.8 °F 52% 29.71 in 6.2 mi SE 10.4 mph - N/A   Mostly Cloudy
6:30 PM 59.0 °F - 41.0 °F 51% 29.71 in 6.2 mi ESE 10.4 mph - N/A   Mostly Cloudy
7:00 PM 58 °F - 41 °F 42% 29.73 in 37 mi SSE 8.9 mph - -   Scattered Clouds
7:00 PM 59.0 °F - 41.0 °F 51% 29.71 in 6.2 mi SE 10.4 mph - N/A   Mostly Cloudy
7:30 PM 59.0 °F - 42.8 °F 55% 29.71 in 6.2 mi SE 9.2 mph - N/A   Mostly Cloudy
8:00 PM 57.2 °F - 44.6 °F 63% 29.71 in 6.2 mi SE 10.4 mph - N/A   Mostly Cloudy
8:30 PM 55.4 °F - 46.4 °F 72% 29.71 in 6.2 mi SE 8.1 mph - N/A   Mostly Cloudy
9:30 PM 53.6 °F - 46.4 °F 77% 29.71 in 6.2 mi SE 6.9 mph - N/A   Mostly Cloudy
10:00 PM 53.6 °F - 48.2 °F 82% 29.71 in 6.2 mi ESE 8.1 mph - N/A   Mostly Cloudy
10:30 PM 53.6 °F - 50.0 °F 88% 29.71 in 6.2 mi SE 6.9 mph - N/A   Mostly Cloudy
11:00 PM 53.6 °F - 50.0 °F 88% 29.71 in 6.2 mi SE 6.9 mph - N/A   Mostly Cloudy
11:30 PM 51.8 °F - 50.0 °F 94% 29.71 in 6.2 mi SE 5.8 mph - N/A   Mostly Cloudy